Location: Staunton
(38.1490°N, 79.0720°W)
Time: 15:26:50
(UTC-04:00)

ISS - Pass Details

Date: 08 April 2021
Orbit: 418 x 422 km, 51.6° (Epoch: 11 April)

Event Time Altitude Azimuth Distance (km) Brightness Sun altitude
Rises 20:12:30 0° 295° (WNW) 2,364 2.3 -5.9°
Reaches altitude 10° 20:15:00 10° 276° (W) 1,496 0.8 -6.3°
Maximum altitude 20:17:26 19° 230° (SW) 1,072 -1.2 -6.8°
Drops below altitude 10° 20:19:51 10° 183° (S) 1,487 -1.1 -7.3°
Sets 20:22:20 0° 164° (SSE) 2,344 -0.3 -7.7°
